Time,TemperatureF,DewpointF,PressureIn,WindDirection,WindDirectionDegrees,WindSpeedMPH,WindSpeedGustMPH,Humidity,HourlyPrecipIn,Conditions,Clouds,dailyrainin,SoftwareType,DateUTC
2013-12-20 00:01:00,68.7,57.3,29.76,SSE,158,2.5,2.5,67,0.00,,---,0.00,VWS V14.01,2013-12-19 13:01:00,
2013-12-20 00:06:00,68.7,58.2,29.76,SSE,158,2.5,2.5,69,0.00,,---,0.00,VWS V14.01,2013-12-19 13:06:00,
2013-12-20 00:11:00,68.7,58.5,29.76,SSE,158,2.5,2.5,70,0.00,,---,0.00,VWS V14.01,2013-12-19 13:11:00,
2013-12-20 00:16:00,68.7,58.2,29.76,SSE,158,2.5,2.5,69,0.00,,---,0.00,VWS V14.01,2013-12-19 13:16:00,
2013-12-20 00:21:00,68.7,58.5,29.76,SSE,158,2.5,2.5,70,0.00,,---,0.00,VWS V14.01,2013-12-19 13:21:00,
2013-12-20 00:26:00,68.7,58.5,29.76,SSE,158,2.5,2.5,70,0.00,,---,0.00,VWS V14.01,2013-12-19 13:26:00,
2013-12-20 00:31:00,68.5,58.0,29.76,SSE,158,2.5,2.5,69,0.00,,---,0.00,VWS V14.01,2013-12-19 13:31:00,
2013-12-20 00:36:00,68.5,58.8,29.76,SSE,158,2.5,2.5,71,0.00,,---,0.00,VWS V14.01,2013-12-19 13:36:00,
2013-12-20 00:41:00,68.5,59.2,29.76,SSE,158,2.5,2.5,72,0.00,,---,0.00,VWS V14.01,2013-12-19 13:41:00,
2013-12-20 00:46:00,68.4,59.0,29.76,SSE,158,2.5,2.5,72,0.00,,---,0.00,VWS V14.01,2013-12-19 13:46:00,
2013-12-20 00:51:00,68.4,59.0,29.76,SSE,158,2.5,2.5,72,0.00,,---,0.00,VWS V14.01,2013-12-19 13:51:00,
2013-12-20 00:56:00,68.2,58.8,29.76,SSE,158,2.5,2.5,72,0.00,,---,0.00,VWS V14.01,2013-12-19 13:56:00,
2013-12-20 01:01:00,68.2,58.0,29.76,SSE,158,2.5,2.5,70,0.00,,---,0.00,VWS V14.01,2013-12-19 14:01:00,
2013-12-20 01:06:00,68.2,58.4,29.76,SSE,158,2.5,2.5,71,0.00,,---,0.00,VWS V14.01,2013-12-19 14:06:00,
2013-12-20 01:11:00,68.2,58.4,29.76,SSE,158,2.5,2.5,71,0.00,,---,0.00,VWS V14.01,2013-12-19 14:11:00,
2013-12-20 01:16:00,68.2,58.4,29.76,SSE,158,2.5,2.5,71,0.00,,---,0.00,VWS V14.01,2013-12-19 14:16:00,
2013-12-20 01:21:00,68.2,58.8,29.76,SSE,158,2.5,2.5,72,0.00,,---,0.00,VWS V14.01,2013-12-19 14:21:00,
2013-12-20 01:26:00,68.2,59.2,29.76,SSE,158,2.5,2.5,73,0.00,,---,0.00,VWS V14.01,2013-12-19 14:26:00,
2013-12-20 01:31:00,68.0,59.0,29.76,SSE,158,2.5,2.5,73,0.00,,---,0.00,VWS V14.01,2013-12-19 14:31:00,
2013-12-20 01:36:00,68.0,59.4,29.76,SSE,158,2.5,2.5,74,0.00,,---,0.00,VWS V14.01,2013-12-19 14:36:00,
2013-12-20 01:41:00,67.8,59.6,29.76,SSE,158,2.5,2.5,75,0.00,,---,0.00,VWS V14.01,2013-12-19 14:41:00,
2013-12-20 01:46:00,67.8,59.6,29.76,SSE,158,2.5,2.5,75,0.00,,---,0.00,VWS V14.01,2013-12-19 14:46:00,
2013-12-20 01:51:00,67.6,59.8,29.76,SSE,158,2.5,2.5,76,0.00,,---,0.00,VWS V14.01,2013-12-19 14:51:00,
2013-12-20 01:56:00,67.5,59.6,29.76,SSE,158,2.5,2.5,76,0.00,,---,0.00,VWS V14.01,2013-12-19 14:56:00,
2013-12-20 02:01:00,67.5,59.6,29.76,SSE,158,2.5,2.5,76,0.00,,---,0.00,VWS V14.01,2013-12-19 15:01:00,
2013-12-20 02:06:00,67.3,59.5,29.76,SSE,158,2.5,2.5,76,0.00,,---,0.00,VWS V14.01,2013-12-19 15:06:00,
2013-12-20 02:11:00,67.3,59.5,29.76,SSE,158,2.5,2.5,76,0.00,,---,0.00,VWS V14.01,2013-12-19 15:11:00,
2013-12-20 02:16:00,67.3,59.8,29.74,SSE,158,2.5,2.5,77,0.00,,---,0.00,VWS V14.01,2013-12-19 15:16:00,
2013-12-20 02:21:00,67.1,59.7,29.74,SSE,158,2.5,2.5,77,0.00,,---,0.00,VWS V14.01,2013-12-19 15:21:00,
2013-12-20 02:26:00,67.1,60.0,29.74,SSE,158,2.5,2.5,78,0.00,,---,0.00,VWS V14.01,2013-12-19 15:26:00,
2013-12-20 02:31:00,66.9,59.8,29.74,SSE,158,2.5,2.5,78,0.00,,---,0.00,VWS V14.01,2013-12-19 15:31:00,
2013-12-20 02:36:00,66.9,59.8,29.74,SSE,158,2.5,2.5,78,0.00,,---,0.00,VWS V14.01,2013-12-19 15:36:00,
2013-12-20 02:41:00,66.9,59.5,29.74,SSE,158,2.5,2.5,77,0.00,,---,0.00,VWS V14.01,2013-12-19 15:41:00,
2013-12-20 02:46:00,66.9,59.8,29.74,SSE,158,2.5,2.5,78,0.00,,---,0.00,VWS V14.01,2013-12-19 15:46:00,
2013-12-20 02:51:00,66.9,59.5,29.74,SSE,158,2.5,2.5,77,0.00,,---,0.00,VWS V14.01,2013-12-19 15:51:00,
2013-12-20 02:56:00,66.7,59.3,29.74,SSE,158,2.5,2.5,77,0.00,,---,0.00,VWS V14.01,2013-12-19 15:56:00,
2013-12-20 03:01:00,66.7,59.7,29.74,SSE,158,2.5,2.5,78,0.00,,---,0.00,VWS V14.01,2013-12-19 16:01:00,
2013-12-20 03:06:00,66.7,59.7,29.74,SSE,158,2.5,2.5,78,0.00,,---,0.00,VWS V14.01,2013-12-19 16:06:00,
2013-12-20 03:11:00,66.6,59.1,29.74,SSE,158,2.5,2.5,77,0.00,,---,0.00,VWS V14.01,2013-12-19 16:11:00,
2013-12-20 03:16:00,66.6,59.5,29.74,SSE,158,2.5,2.5,78,0.00,,---,0.00,VWS V14.01,2013-12-19 16:16:00,
2013-12-20 03:21:00,66.4,59.7,29.74,SSE,158,2.5,2.5,79,0.00,,---,0.00,VWS V14.01,2013-12-19 16:21:00,
2013-12-20 03:26:00,66.4,59.7,29.74,SSE,158,2.5,2.5,79,0.00,,---,0.00,VWS V14.01,2013-12-19 16:26:00,
2013-12-20 03:31:00,66.4,59.7,29.74,SSE,158,2.5,2.5,79,0.00,,---,0.00,VWS V14.01,2013-12-19 16:31:00,
2013-12-20 03:36:00,66.2,59.2,29.74,SSE,158,2.5,2.5,78,0.00,,---,0.00,VWS V14.01,2013-12-19 16:36:00,
2013-12-20 03:41:00,66.2,59.2,29.74,SSE,158,2.5,2.5,78,0.00,,---,0.00,VWS V14.01,2013-12-19 16:41:00,
2013-12-20 03:46:00,66.2,59.2,29.74,SSE,158,2.5,2.5,78,0.00,,---,0.00,VWS V14.01,2013-12-19 16:46:00,
2013-12-20 03:51:00,66.4,59.7,29.74,North,0,0.0,0.0,79,0.00,,---,0.00,VWS V14.01,2013-12-19 16:51:00,
2013-12-20 03:56:00,66.4,59.3,29.74,North,0,0.0,0.0,78,0.00,,---,0.00,VWS V14.01,2013-12-19 16:56:00,
2013-12-20 04:01:00,66.4,59.3,29.74,North,0,0.0,0.0,78,0.00,,---,0.00,VWS V14.01,2013-12-19 17:01:00,
2013-12-20 04:06:00,66.4,59.0,29.74,North,0,0.0,0.0,77,0.00,,---,0.00,VWS V14.01,2013-12-19 17:06:00,
2013-12-20 04:11:00,66.4,59.0,29.74,WNW,292,0.0,0.0,77,0.00,,---,0.00,VWS V14.01,2013-12-19 17:11:00,
2013-12-20 04:16:00,66.4,59.0,29.74,WNW,292,0.0,0.0,77,0.00,,---,0.00,VWS V14.01,2013-12-19 17:16:00,
2013-12-20 04:21:00,66.4,59.0,29.74,WNW,292,0.0,0.0,77,0.00,,---,0.00,VWS V14.01,2013-12-19 17:21:00,
2013-12-20 04:26:00,66.4,59.0,29.74,North,0,0.0,0.0,77,0.00,,---,0.00,VWS V14.01,2013-12-19 17:26:00,
2013-12-20 04:31:00,66.4,59.0,29.74,North,0,0.0,0.0,77,0.00,,---,0.00,VWS V14.01,2013-12-19 17:31:00,
2013-12-20 04:36:00,66.2,58.4,29.74,North,0,0.0,0.0,76,0.00,,---,0.00,VWS V14.01,2013-12-19 17:36:00,
2013-12-20 04:41:00,66.2,58.0,29.74,North,0,0.0,0.0,75,0.00,,---,0.00,VWS V14.01,2013-12-19 17:41:00,
2013-12-20 04:46:00,66.0,58.2,29.74,ENE,68,0.0,0.0,76,0.00,,---,0.00,VWS V14.01,2013-12-19 17:46:00,
2013-12-20 04:51:00,66.0,58.6,29.74,WNW,292,0.0,0.0,77,0.00,,---,0.00,VWS V14.01,2013-12-19 17:51:00,
2013-12-20 04:56:00,66.0,59.0,29.74,WNW,292,0.0,0.0,78,0.00,,---,0.00,VWS V14.01,2013-12-19 17:56:00,
2013-12-20 05:01:00,66.0,59.0,29.74,WNW,292,0.0,0.0,78,0.00,,---,0.00,VWS V14.01,2013-12-19 18:01:00,
2013-12-20 05:05:00,66.2,58.8,29.74,WNW,292,0.0,0.0,77,0.00,,---,0.00,VWS V14.01,2013-12-19 18:05:00,
2013-12-20 05:10:00,66.2,58.8,29.74,NNE,22,2.0,2.0,77,0.00,,---,0.00,VWS V14.01,2013-12-19 18:10:00,
2013-12-20 05:15:00,66.0,59.0,29.74,NNE,22,2.0,2.0,78,0.00,,---,0.00,VWS V14.01,2013-12-19 18:15:00,
2013-12-20 05:20:00,66.0,59.0,29.74,NNE,22,2.0,2.0,78,0.00,,---,0.00,VWS V14.01,2013-12-19 18:20:00,
2013-12-20 05:25:00,65.8,58.8,29.74,NNW,338,0.0,0.0,78,0.00,,---,0.00,VWS V14.01,2013-12-19 18:25:00,
2013-12-20 05:30:00,65.8,59.2,29.74,NW,315,0.0,0.0,79,0.00,,---,0.00,VWS V14.01,2013-12-19 18:30:00,
2013-12-20 05:35:00,65.7,58.6,29.74,East,90,0.0,0.0,78,0.00,,---,0.00,VWS V14.01,2013-12-19 18:35:00,
2013-12-20 05:40:00,65.5,58.5,29.74,ENE,68,0.0,0.0,78,0.00,,---,0.00,VWS V14.01,2013-12-19 18:40:00,
2013-12-20 05:45:00,65.5,58.5,29.76,ESE,112,0.0,0.0,78,0.00,,---,0.00,VWS V14.01,2013-12-19 18:45:00,
2013-12-20 05:50:00,65.5,58.1,29.76,ENE,68,0.0,0.0,77,0.00,,---,0.00,VWS V14.01,2013-12-19 18:50:00,
2013-12-20 05:55:00,65.5,58.5,29.76,ENE,68,0.0,0.0,78,0.00,,---,0.00,VWS V14.01,2013-12-19 18:55:00,
2013-12-20 06:00:00,65.5,58.5,29.76,NW,315,0.0,0.0,78,0.00,,---,0.00,VWS V14.01,2013-12-19 19:00:00,
2013-12-20 06:05:00,65.8,58.8,29.76,NW,315,0.0,0.0,78,0.00,,---,0.00,VWS V14.01,2013-12-19 19:05:00,
2013-12-20 06:10:00,66.0,59.7,29.76,NW,315,0.0,0.0,80,0.00,,---,0.00,VWS V14.01,2013-12-19 19:10:00,
2013-12-20 06:15:00,66.0,59.7,29.76,NW,315,0.0,0.0,80,0.00,,---,0.00,VWS V14.01,2013-12-19 19:15:00,
2013-12-20 06:20:00,66.2,59.5,29.76,NW,315,0.0,0.0,79,0.00,,---,0.00,VWS V14.01,2013-12-19 19:20:00,
2013-12-20 06:25:00,66.2,59.2,29.76,North,0,2.9,2.9,78,0.00,,---,0.00,VWS V14.01,2013-12-19 19:25:00,
2013-12-20 06:30:00,66.4,59.0,29.76,North,0,2.9,3.4,77,0.00,,---,0.00,VWS V14.01,2013-12-19 19:30:00,
2013-12-20 06:35:00,66.6,59.1,29.76,North,0,4.7,4.7,77,0.00,,---,0.00,VWS V14.01,2013-12-19 19:35:00,
2013-12-20 06:40:00,66.6,58.8,29.76,NW,315,5.4,5.4,76,0.00,,---,0.00,VWS V14.01,2013-12-19 19:40:00,
2013-12-20 06:45:00,67.5,59.3,29.76,NW,315,5.4,5.4,75,0.00,,---,0.00,VWS V14.01,2013-12-19 19:45:00,
2013-12-20 06:50:00,67.8,59.2,29.76,NNW,338,5.6,5.6,74,0.00,,---,0.00,VWS V14.01,2013-12-19 19:50:00,
2013-12-20 06:54:00,69.6,60.2,29.76,North,0,5.4,5.4,72,0.00,,---,0.00,VWS V14.01,2013-12-19 19:54:00,
2013-12-20 06:59:00,68.4,59.4,29.76,North,0,5.4,5.4,73,0.00,,---,0.00,VWS V14.01,2013-12-19 19:59:00,
2013-12-20 07:04:00,68.4,59.4,29.76,NNW,338,4.0,4.0,73,0.00,,---,0.00,VWS V14.01,2013-12-19 20:04:00,
2013-12-20 07:09:00,68.2,59.2,29.76,NW,315,3.8,3.8,73,0.00,,---,0.00,VWS V14.01,2013-12-19 20:09:00,
2013-12-20 07:14:00,68.4,59.4,29.76,NNE,22,5.8,5.8,73,0.00,,---,0.00,VWS V14.01,2013-12-19 20:14:00,
2013-12-20 07:19:00,68.5,59.5,29.76,NNE,22,5.8,5.8,73,0.00,,---,0.00,VWS V14.01,2013-12-19 20:19:00,
2013-12-20 07:24:00,68.9,59.5,29.76,NW,315,2.9,2.9,72,0.00,,---,0.00,VWS V14.01,2013-12-19 20:24:00,
2013-12-20 07:29:00,68.9,59.5,29.76,North,0,3.4,3.4,72,0.00,,---,0.00,VWS V14.01,2013-12-19 20:29:00,
2013-12-20 07:34:00,69.1,59.7,29.76,North,0,2.5,2.5,72,0.00,,---,0.00,VWS V14.01,2013-12-19 20:34:00,
2013-12-20 07:39:00,69.3,59.9,29.76,WNW,292,2.9,2.9,72,0.00,,---,0.00,VWS V14.01,2013-12-19 20:39:00,
2013-12-20 07:44:00,69.6,60.2,29.76,WNW,292,2.9,2.9,72,0.00,,---,0.00,VWS V14.01,2013-12-19 20:44:00,
2013-12-20 07:49:00,69.8,60.0,29.76,NW,315,4.3,4.3,71,0.00,,---,0.00,VWS V14.01,2013-12-19 20:49:00,
2013-12-20 07:54:00,70.2,60.3,29.76,NW,315,4.3,4.3,71,0.00,,---,0.00,VWS V14.01,2013-12-19 20:54:00,
2013-12-20 07:59:00,70.5,60.7,29.76,NW,315,4.3,4.3,71,0.00,,---,0.00,VWS V14.01,2013-12-19 20:59:00,
2013-12-20 08:04:00,70.7,60.8,29.76,NW,315,4.3,4.3,71,0.00,,---,0.00,VWS V14.01,2013-12-19 21:04:00,
2013-12-20 08:09:00,71.1,60.8,29.76,NW,315,4.3,4.3,70,0.00,,---,0.00,VWS V14.01,2013-12-19 21:09:00,
2013-12-20 08:14:00,71.4,61.1,29.76,NW,315,4.3,4.3,70,0.00,,---,0.00,VWS V14.01,2013-12-19 21:14:00,
2013-12-20 08:19:00,71.4,61.1,29.76,NW,315,4.3,4.3,70,0.00,,---,0.00,VWS V14.01,2013-12-19 21:19:00,
2013-12-20 08:24:00,71.8,61.1,29.76,NW,315,4.3,4.3,69,0.00,,---,0.00,VWS V14.01,2013-12-19 21:24:00,
2013-12-20 08:29:00,72.1,61.0,29.76,NW,315,4.3,4.3,68,0.00,,---,0.00,VWS V14.01,2013-12-19 21:29:00,
2013-12-20 08:34:00,72.1,61.0,29.76,NW,315,4.3,4.3,68,0.00,,---,0.00,VWS V14.01,2013-12-19 21:34:00,
2013-12-20 08:39:00,72.5,61.3,29.76,NW,315,4.3,4.3,68,0.00,,---,0.00,VWS V14.01,2013-12-19 21:39:00,
2013-12-20 08:44:00,73.0,61.5,29.76,NW,315,4.3,4.3,67,0.00,,---,0.00,VWS V14.01,2013-12-19 21:44:00,
2013-12-20 08:49:00,73.4,61.4,29.76,NW,315,4.3,4.3,66,0.00,,---,0.00,VWS V14.01,2013-12-19 21:49:00,
2013-12-20 08:54:00,73.8,61.7,29.76,NW,315,4.3,4.3,66,0.00,,---,0.00,VWS V14.01,2013-12-19 21:54:00,
2013-12-20 08:59:00,74.1,62.0,29.76,NW,315,4.3,4.3,66,0.00,,---,0.00,VWS V14.01,2013-12-19 21:59:00,
2013-12-20 09:04:00,74.5,62.4,29.76,NW,315,4.3,4.3,66,0.00,,---,0.00,VWS V14.01,2013-12-19 22:04:00,
2013-12-20 09:09:00,74.8,62.3,29.76,NW,315,4.3,4.3,65,0.00,,---,0.00,VWS V14.01,2013-12-19 22:09:00,
2013-12-20 09:14:00,75.4,62.4,29.76,NW,315,4.3,4.3,64,0.00,,---,0.00,VWS V14.01,2013-12-19 22:14:00,
2013-12-20 09:19:00,75.7,62.7,29.76,NW,315,4.3,4.3,64,0.00,,---,0.00,VWS V14.01,2013-12-19 22:19:00,
2013-12-20 09:24:00,76.3,62.8,29.76,NW,315,4.3,4.3,63,0.00,,---,0.00,VWS V14.01,2013-12-19 22:24:00,
2013-12-20 09:29:00,77.4,62.9,29.76,NW,315,4.3,4.3,61,0.00,,---,0.00,VWS V14.01,2013-12-19 22:29:00,
2013-12-20 09:34:00,77.9,62.4,29.76,NW,315,4.3,4.3,59,0.00,,---,0.00,VWS V14.01,2013-12-19 22:34:00,
2013-12-20 09:39:00,79.0,60.9,29.76,NW,315,4.3,4.3,54,0.00,,---,0.00,VWS V14.01,2013-12-19 22:39:00,
2013-12-20 09:44:00,79.5,60.9,29.76,NW,315,4.3,4.3,53,0.00,,---,0.00,VWS V14.01,2013-12-19 22:44:00,
2013-12-20 09:49:00,80.1,60.9,29.76,NW,315,4.3,4.3,52,0.00,,---,0.00,VWS V14.01,2013-12-19 22:49:00,
2013-12-20 09:54:00,80.6,61.4,29.76,NW,315,4.3,4.3,52,0.00,,---,0.00,VWS V14.01,2013-12-19 22:54:00,
2013-12-20 09:59:00,81.5,60.5,29.74,NW,315,4.3,4.3,49,0.00,,---,0.00,VWS V14.01,2013-12-19 22:59:00,
2013-12-20 10:04:00,82.2,61.8,29.74,NW,315,4.3,4.3,50,0.00,,---,0.00,VWS V14.01,2013-12-19 23:04:00,
2013-12-20 10:09:00,82.8,61.1,29.74,NW,315,4.3,4.3,48,0.00,,---,0.00,VWS V14.01,2013-12-19 23:09:00,
2013-12-20 10:14:00,83.3,61.0,29.74,NW,315,4.3,4.3,47,0.00,,---,0.00,VWS V14.01,2013-12-19 23:14:00,
2013-12-20 10:19:00,84.2,61.8,29.74,NW,315,4.3,4.3,47,0.00,,---,0.00,VWS V14.01,2013-12-19 23:19:00,
2013-12-20 10:24:00,84.9,62.5,29.74,NW,315,4.3,4.3,47,0.00,,---,0.00,VWS V14.01,2013-12-19 23:24:00,
2013-12-20 10:29:00,85.8,62.7,29.74,NW,315,4.3,4.3,46,0.00,,---,0.00,VWS V14.01,2013-12-19 23:29:00,
2013-12-20 10:34:00,86.5,62.7,29.74,NW,315,4.3,4.3,45,0.00,,---,0.00,VWS V14.01,2013-12-19 23:34:00,
2013-12-20 10:39:00,87.3,63.3,29.74,NW,315,4.3,4.3,45,0.00,,---,0.00,VWS V14.01,2013-12-19 23:39:00,
2013-12-20 10:44:00,87.6,63.0,29.74,NW,315,4.3,4.3,44,0.00,,---,0.00,VWS V14.01,2013-12-19 23:44:00,
2013-12-20 10:49:00,88.2,62.2,29.74,NW,315,4.3,4.3,42,0.00,,---,0.00,VWS V14.01,2013-12-19 23:49:00,
2013-12-20 10:54:00,88.9,62.2,29.74,NW,315,4.3,4.3,41,0.00,,---,0.00,VWS V14.01,2013-12-19 23:54:00,
2013-12-20 10:59:00,89.8,61.5,29.71,NW,315,4.3,4.3,39,0.00,,---,0.00,VWS V14.01,2013-12-19 23:59:00,
2013-12-20 11:04:00,90.3,61.3,29.71,NW,315,4.3,4.3,38,0.00,,---,0.00,VWS V14.01,2013-12-20 00:04:00,
2013-12-20 11:09:00,90.9,62.5,29.71,NW,315,4.3,4.3,39,0.00,,---,0.00,VWS V14.01,2013-12-20 00:09:00,
2013-12-20 11:14:00,91.4,61.5,29.71,NW,315,4.3,4.3,37,0.00,,---,0.00,VWS V14.01,2013-12-20 00:14:00,
2013-12-20 11:19:00,92.3,63.0,29.71,NW,315,4.3,4.3,38,0.00,,---,0.00,VWS V14.01,2013-12-20 00:19:00,
2013-12-20 11:24:00,92.8,62.8,29.71,NW,315,4.3,4.3,37,0.00,,---,0.00,VWS V14.01,2013-12-20 00:24:00,
2013-12-20 11:29:00,93.2,61.5,29.71,NW,315,4.3,4.3,35,0.00,,---,0.00,VWS V14.01,2013-12-20 00:29:00,
2013-12-20 11:34:00,93.7,62.8,29.71,NW,315,4.3,4.3,36,0.00,,---,0.00,VWS V14.01,2013-12-20 00:34:00,
2013-12-20 11:39:00,94.5,63.4,29.71,NW,315,4.3,4.3,36,0.00,,---,0.00,VWS V14.01,2013-12-20 00:39:00,
2013-12-20 11:44:00,94.6,62.8,29.68,NW,315,4.3,4.3,35,0.00,,---,0.00,VWS V14.01,2013-12-20 00:44:00,
2013-12-20 11:49:00,95.2,59.8,29.68,NW,315,4.3,4.3,31,0.00,,---,0.00,VWS V14.01,2013-12-20 00:49:00,
2013-12-20 11:54:00,95.7,60.3,29.68,NW,315,4.3,4.3,31,0.00,,---,0.00,VWS V14.01,2013-12-20 00:54:00,
2013-12-20 11:59:00,96.4,61.8,29.68,NW,315,4.3,4.3,32,0.00,,---,0.00,VWS V14.01,2013-12-20 00:59:00,
2013-12-20 12:04:00,97.0,61.4,29.68,NW,315,4.3,4.3,31,0.00,,---,0.00,VWS V14.01,2013-12-20 01:04:00,
2013-12-20 12:09:00,97.3,60.7,29.68,NW,315,4.3,4.3,30,0.00,,---,0.00,VWS V14.01,2013-12-20 01:09:00,
2013-12-20 12:14:00,97.5,58.0,29.68,NW,315,4.3,4.3,27,0.00,,---,0.00,VWS V14.01,2013-12-20 01:14:00,
2013-12-20 12:19:00,98.1,60.4,29.68,NW,315,4.3,4.3,29,0.00,,---,0.00,VWS V14.01,2013-12-20 01:19:00,
2013-12-20 12:24:00,98.8,61.0,29.68,NW,315,4.3,4.3,29,0.00,,---,0.00,VWS V14.01,2013-12-20 01:24:00,
2013-12-20 12:29:00,99.3,60.5,29.68,NW,315,4.3,4.3,28,0.00,,---,0.00,VWS V14.01,2013-12-20 01:29:00,
2013-12-20 12:34:00,99.5,61.6,29.68,NW,315,4.3,4.3,29,0.00,,---,0.00,VWS V14.01,2013-12-20 01:34:00,
2013-12-20 12:39:00,99.9,61.0,29.68,NW,315,4.3,4.3,28,0.00,,---,0.00,VWS V14.01,2013-12-20 01:39:00,
2013-12-20 12:44:00,100.2,61.3,29.68,NW,315,4.3,4.3,28,0.00,,---,0.00,VWS V14.01,2013-12-20 01:44:00,
2013-12-20 12:49:00,100.6,59.5,29.68,NW,315,4.3,4.3,26,0.00,,---,0.00,VWS V14.01,2013-12-20 01:49:00,
2013-12-20 12:54:00,100.4,59.3,29.68,NW,315,4.3,4.3,26,0.00,,---,0.00,VWS V14.01,2013-12-20 01:54:00,
2013-12-20 12:59:00,100.9,59.8,29.65,NW,315,4.3,4.3,26,0.00,,---,0.00,VWS V14.01,2013-12-20 01:59:00,
2013-12-20 13:04:00,101.3,60.1,29.65,NW,315,4.3,4.3,26,0.00,,---,0.00,VWS V14.01,2013-12-20 02:04:00,
2013-12-20 13:09:00,101.3,59.0,29.65,NW,315,4.3,4.3,25,0.00,,---,0.00,VWS V14.01,2013-12-20 02:09:00,
2013-12-20 13:14:00,101.5,60.2,29.65,WNW,292,0.0,0.0,26,0.00,,---,0.00,VWS V14.01,2013-12-20 02:14:00,
2013-12-20 13:19:00,101.8,59.4,29.65,West,270,3.6,3.6,25,0.00,,---,0.00,VWS V14.01,2013-12-20 02:19:00,
2013-12-20 13:24:00,102.0,59.6,29.65,West,270,3.6,3.6,25,0.00,,---,0.00,VWS V14.01,2013-12-20 02:24:00,
2013-12-20 13:29:00,102.2,59.7,29.65,ESE,112,0.0,0.0,25,0.00,,---,0.00,VWS V14.01,2013-12-20 02:29:00,
2013-12-20 13:34:00,102.6,60.0,29.65,ESE,112,0.0,0.0,25,0.00,,---,0.00,VWS V14.01,2013-12-20 02:34:00,
2013-12-20 13:39:00,102.9,60.3,29.65,ESE,112,0.0,0.0,25,0.00,,---,0.00,VWS V14.01,2013-12-20 02:39:00,
2013-12-20 13:44:00,103.3,60.7,29.62,NE,45,2.0,2.0,25,0.00,,---,0.00,VWS V14.01,2013-12-20 02:44:00,
2013-12-20 13:49:00,103.1,60.5,29.62,NE,45,2.0,2.0,25,0.00,,---,0.00,VWS V14.01,2013-12-20 02:49:00,
2013-12-20 13:54:00,103.1,59.3,29.62,West,270,4.0,4.0,24,0.00,,---,0.00,VWS V14.01,2013-12-20 02:54:00,
2013-12-20 13:59:00,103.3,55.8,29.62,SW,225,3.8,3.8,21,0.00,,---,0.00,VWS V14.01,2013-12-20 02:59:00,
2013-12-20 14:04:00,103.8,60.0,29.62,SW,225,3.8,3.8,24,0.00,,---,0.00,VWS V14.01,2013-12-20 03:04:00,
2013-12-20 14:09:00,103.8,60.0,29.62,SW,225,3.8,3.8,24,0.00,,---,0.00,VWS V14.01,2013-12-20 03:09:00,
2013-12-20 14:14:00,103.8,60.0,29.62,SW,225,3.8,3.8,24,0.00,,---,0.00,VWS V14.01,2013-12-20 03:14:00,
2013-12-20 14:19:00,104.5,58.1,29.62,NW,315,4.9,4.9,22,0.00,,---,0.00,VWS V14.01,2013-12-20 03:19:00,
2013-12-20 14:24:00,104.4,58.0,29.62,NW,315,3.8,3.8,22,0.00,,---,0.00,VWS V14.01,2013-12-20 03:24:00,
2013-12-20 14:29:00,104.5,58.1,29.59,NW,315,1.6,1.6,22,0.00,,---,0.00,VWS V14.01,2013-12-20 03:29:00,
2013-12-20 14:34:00,103.6,59.8,29.59,NW,315,1.6,1.6,24,0.00,,---,0.00,VWS V14.01,2013-12-20 03:34:00,
2013-12-20 14:39:00,102.2,57.4,29.59,East,90,7.6,7.6,23,0.00,,---,0.00,VWS V14.01,2013-12-20 03:39:00,
2013-12-20 14:44:00,101.8,59.4,29.59,NE,45,1.1,1.1,25,0.00,,---,0.00,VWS V14.01,2013-12-20 03:44:00,
2013-12-20 14:49:00,101.3,59.0,29.59,East,90,0.0,0.0,25,0.00,,---,0.00,VWS V14.01,2013-12-20 03:49:00,
2013-12-20 14:54:00,101.3,59.0,29.59,East,90,0.0,0.0,25,0.00,,---,0.00,VWS V14.01,2013-12-20 03:54:00,
2013-12-20 14:59:00,101.1,59.9,29.59,ESE,112,0.0,0.0,26,0.00,,---,0.00,VWS V14.01,2013-12-20 03:59:00,
2013-12-20 15:04:00,100.9,59.8,29.59,ESE,112,0.0,0.0,26,0.00,,---,0.00,VWS V14.01,2013-12-20 04:04:00,
2013-12-20 15:09:00,101.3,59.0,29.59,ESE,112,0.0,0.0,25,0.00,,---,0.00,VWS V14.01,2013-12-20 04:09:00,
2013-12-20 15:14:00,101.8,60.5,29.59,SE,135,0.0,0.0,26,0.00,,---,0.00,VWS V14.01,2013-12-20 04:14:00,
2013-12-20 15:19:00,101.3,60.1,29.59,SE,135,0.0,0.0,26,0.00,,---,0.00,VWS V14.01,2013-12-20 04:19:00,
2013-12-20 15:24:00,101.3,59.0,29.59,SE,135,0.0,0.0,25,0.00,,---,0.00,VWS V14.01,2013-12-20 04:24:00,
2013-12-20 15:29:00,101.5,60.2,29.59,SE,135,0.0,0.0,26,0.00,,---,0.00,VWS V14.01,2013-12-20 04:29:00,
2013-12-20 15:34:00,101.8,60.5,29.59,SE,135,0.0,0.0,26,0.00,,---,0.00,VWS V14.01,2013-12-20 04:34:00,
2013-12-20 15:39:00,101.3,60.1,29.59,SE,135,0.0,0.0,26,0.00,,---,0.00,VWS V14.01,2013-12-20 04:39:00,
2013-12-20 15:44:00,101.1,59.9,29.59,SE,135,0.0,0.0,26,0.00,,---,0.00,VWS V14.01,2013-12-20 04:44:00,
2013-12-20 15:49:00,100.8,59.6,29.59,SE,135,0.0,0.0,26,0.00,,---,0.00,VWS V14.01,2013-12-20 04:49:00,
2013-12-20 15:54:00,100.2,60.2,29.59,SE,135,0.0,0.0,27,0.00,,---,0.00,VWS V14.01,2013-12-20 04:54:00,
2013-12-20 15:59:00,100.2,60.2,29.59,SE,135,0.0,0.0,27,0.00,,---,0.00,VWS V14.01,2013-12-20 04:59:00,
2013-12-20 16:01:00,100.2,60.2,29.59,SE,135,0.0,0.0,27,0.00,,---,0.00,VWS V14.01,2013-12-20 05:01:00,
2013-12-20 16:06:00,100.4,60.4,29.59,SE,135,0.0,0.0,27,0.00,,---,0.00,VWS V14.01,2013-12-20 05:06:00,
2013-12-20 16:11:00,100.8,60.7,29.56,SE,135,0.0,0.0,27,0.00,,---,0.00,VWS V14.01,2013-12-20 05:11:00,
2013-12-20 16:16:00,101.1,61.0,29.56,SE,135,0.0,0.0,27,0.00,,---,0.00,VWS V14.01,2013-12-20 05:16:00,
2013-12-20 16:21:00,101.1,61.0,29.56,SE,135,0.0,0.0,27,0.00,,---,0.00,VWS V14.01,2013-12-20 05:21:00,
2013-12-20 16:26:00,101.3,61.2,29.56,SE,135,0.0,0.0,27,0.00,,---,0.00,VWS V14.01,2013-12-20 05:26:00,
2013-12-20 16:31:00,101.5,61.3,29.56,SE,135,0.0,0.0,27,0.00,,---,0.00,VWS V14.01,2013-12-20 05:31:00,
2013-12-20 16:36:00,101.1,58.8,29.56,SE,135,0.0,0.0,25,0.00,,---,0.00,VWS V14.01,2013-12-20 05:36:00,
2013-12-20 16:41:00,101.1,58.8,29.56,SE,135,0.0,0.0,25,0.00,,---,0.00,VWS V14.01,2013-12-20 05:41:00,
2013-12-20 16:46:00,101.5,59.1,29.56,SE,135,0.0,0.0,25,0.00,,---,0.00,VWS V14.01,2013-12-20 05:46:00,
2013-12-20 16:47:00,101.1,58.8,29.56,SE,135,0.0,0.0,25,0.00,,---,0.00,VWS V14.01,2013-12-20 05:47:00,
2013-12-20 16:52:00,101.3,59.0,29.56,SE,135,0.0,0.0,25,0.00,,---,0.00,VWS V14.01,2013-12-20 05:52:00,
2013-12-20 16:57:00,101.5,60.2,29.56,SE,135,0.0,0.0,26,0.00,,---,0.00,VWS V14.01,2013-12-20 05:57:00,
2013-12-20 17:02:00,101.5,61.3,29.56,SE,135,0.0,0.0,27,0.00,,---,0.00,VWS V14.01,2013-12-20 06:02:00,
2013-12-20 17:07:00,101.7,61.5,29.56,SSE,158,0.0,0.0,27,0.00,,---,0.00,VWS V14.01,2013-12-20 06:07:00,
2013-12-20 17:12:00,100.6,60.5,29.56,SSE,158,0.0,0.0,27,0.00,,---,0.00,VWS V14.01,2013-12-20 06:12:00,
2013-12-20 17:17:00,99.7,60.8,29.56,SSE,158,0.0,0.0,28,0.00,,---,0.00,VWS V14.01,2013-12-20 06:17:00,
2013-12-20 17:22:00,99.3,60.5,29.56,SSE,158,0.0,0.0,28,0.00,,---,0.00,VWS V14.01,2013-12-20 06:22:00,
2013-12-20 17:27:00,99.0,60.2,29.56,SSE,158,0.0,0.0,28,0.00,,---,0.00,VWS V14.01,2013-12-20 06:27:00,
2013-12-20 17:32:00,98.1,59.4,29.56,SSE,158,0.0,0.0,28,0.00,,---,0.00,VWS V14.01,2013-12-20 06:32:00,
2013-12-20 17:37:00,98.2,59.6,29.56,SSE,158,0.0,0.0,28,0.00,,---,0.00,VWS V14.01,2013-12-20 06:37:00,
2013-12-20 17:42:00,98.1,59.4,29.56,SSE,158,0.0,0.0,28,0.00,,---,0.00,VWS V14.01,2013-12-20 06:42:00,
2013-12-20 17:47:00,97.7,60.1,29.56,SSE,158,0.0,0.0,29,0.00,,---,0.00,VWS V14.01,2013-12-20 06:47:00,
2013-12-20 17:52:00,97.2,58.7,29.56,SSE,158,0.0,0.0,28,0.00,,---,0.00,VWS V14.01,2013-12-20 06:52:00,
2013-12-20 17:57:00,97.0,59.5,29.56,SSE,158,0.0,0.0,29,0.00,,---,0.00,VWS V14.01,2013-12-20 06:57:00,
2013-12-20 18:02:00,96.8,59.3,29.56,SSE,158,0.0,0.0,29,0.00,,---,0.00,VWS V14.01,2013-12-20 07:02:00,
2013-12-20 18:07:00,96.3,58.9,29.56,SSE,158,0.0,0.0,29,0.00,,---,0.00,VWS V14.01,2013-12-20 07:07:00,
2013-12-20 18:12:00,95.4,59.0,29.56,SSE,158,0.0,0.0,30,0.00,,---,0.00,VWS V14.01,2013-12-20 07:12:00,
2013-12-20 18:17:00,94.3,59.0,29.56,SSE,158,0.0,0.0,31,0.00,,---,0.00,VWS V14.01,2013-12-20 07:17:00,
2013-12-20 18:22:00,93.6,58.4,29.56,SSE,158,0.0,0.0,31,0.00,,---,0.00,VWS V14.01,2013-12-20 07:22:00,
2013-12-20 18:27:00,93.7,59.5,29.56,ESE,112,0.0,0.0,32,0.00,,---,0.00,VWS V14.01,2013-12-20 07:27:00,
2013-12-20 18:32:00,93.7,60.3,29.56,ESE,112,0.0,0.0,33,0.00,,---,0.00,VWS V14.01,2013-12-20 07:32:00,
2013-12-20 18:37:00,93.6,60.2,29.56,South,180,0.0,0.0,33,0.00,,---,0.00,VWS V14.01,2013-12-20 07:37:00,
2013-12-20 18:42:00,93.6,60.2,29.56,South,180,0.0,0.0,33,0.00,,---,0.00,VWS V14.01,2013-12-20 07:42:00,
2013-12-20 18:47:00,93.4,60.8,29.56,SSE,158,0.0,0.0,34,0.00,,---,0.00,VWS V14.01,2013-12-20 07:47:00,
2013-12-20 18:52:00,93.4,60.8,29.56,SSE,158,0.0,0.0,34,0.00,,---,0.00,VWS V14.01,2013-12-20 07:52:00,
2013-12-20 18:57:00,93.2,60.7,29.56,SSW,202,0.0,0.0,34,0.00,,---,0.00,VWS V14.01,2013-12-20 07:57:00,
2013-12-20 19:02:00,93.0,60.5,29.56,SE,135,0.0,0.0,34,0.00,,---,0.00,VWS V14.01,2013-12-20 08:02:00,
2013-12-20 19:07:00,92.5,60.1,29.56,SE,135,0.0,0.0,34,0.00,,---,0.00,VWS V14.01,2013-12-20 08:07:00,
2013-12-20 19:12:00,92.3,59.9,29.56,SE,135,0.0,0.0,34,0.00,,---,0.00,VWS V14.01,2013-12-20 08:12:00,
2013-12-20 19:17:00,92.1,59.7,29.56,SE,135,0.0,0.0,34,0.00,,---,0.00,VWS V14.01,2013-12-20 08:17:00,
2013-12-20 19:22:00,91.9,59.6,29.56,SE,135,0.0,0.0,34,0.00,,---,0.00,VWS V14.01,2013-12-20 08:22:00,
2013-12-20 19:27:00,91.4,59.1,29.56,SE,135,0.0,0.0,34,0.00,,---,0.00,VWS V14.01,2013-12-20 08:27:00,
2013-12-20 19:32:00,91.0,59.6,29.56,ENE,68,0.0,0.0,35,0.00,,---,0.00,VWS V14.01,2013-12-20 08:32:00,
2013-12-20 19:37:00,90.7,60.1,29.56,ENE,68,0.0,0.0,36,0.00,,---,0.00,VWS V14.01,2013-12-20 08:37:00,
2013-12-20 19:42:00,90.1,60.4,29.59,WSW,248,0.0,0.0,37,0.00,,---,0.00,VWS V14.01,2013-12-20 08:42:00,
2013-12-20 19:47:00,89.8,60.1,29.59,WSW,248,0.0,0.0,37,0.00,,---,0.00,VWS V14.01,2013-12-20 08:47:00,
2013-12-20 19:52:00,89.4,60.5,29.59,NNW,338,3.6,3.6,38,0.00,,---,0.00,VWS V14.01,2013-12-20 08:52:00,
2013-12-20 19:57:00,89.1,60.2,29.59,NNW,338,3.6,3.6,38,0.00,,---,0.00,VWS V14.01,2013-12-20 08:57:00,
2013-12-20 20:02:00,88.9,60.0,29.59,ESE,112,0.0,3.6,38,0.00,,---,0.00,VWS V14.01,2013-12-20 09:02:00,
2013-12-20 20:07:00,88.5,60.4,29.59,ESE,112,0.0,0.0,39,0.00,,---,0.00,VWS V14.01,2013-12-20 09:07:00,
2013-12-20 20:12:00,88.3,60.3,29.59,NNE,22,2.5,2.5,39,0.00,,---,0.00,VWS V14.01,2013-12-20 09:12:00,
2013-12-20 20:17:00,88.2,60.8,29.59,NNE,22,2.5,2.5,40,0.00,,---,0.00,VWS V14.01,2013-12-20 09:17:00,
2013-12-20 20:22:00,87.8,60.5,29.59,WNW,292,1.1,1.1,40,0.00,,---,0.00,VWS V14.01,2013-12-20 09:22:00,
2013-12-20 20:27:00,87.6,60.3,29.59,North,0,0.0,0.0,40,0.00,,---,0.00,VWS V14.01,2013-12-20 09:27:00,
2013-12-20 20:32:00,87.4,60.9,29.59,North,0,0.0,0.0,41,0.00,,---,0.00,VWS V14.01,2013-12-20 09:32:00,
2013-12-20 20:37:00,87.1,60.5,29.59,North,0,0.0,0.0,41,0.00,,---,0.00,VWS V14.01,2013-12-20 09:37:00,
2013-12-20 20:42:00,86.9,61.1,29.62,North,0,2.7,2.7,42,0.00,,---,0.00,VWS V14.01,2013-12-20 09:42:00,
2013-12-20 20:47:00,86.5,61.4,29.62,NNE,22,1.3,1.3,43,0.00,,---,0.00,VWS V14.01,2013-12-20 09:47:00,
2013-12-20 20:52:00,86.4,61.2,29.62,NW,315,0.9,0.9,43,0.00,,---,0.00,VWS V14.01,2013-12-20 09:52:00,
2013-12-20 20:57:00,86.2,60.4,29.62,NW,315,0.9,0.9,42,0.00,,---,0.00,VWS V14.01,2013-12-20 09:57:00,
2013-12-20 21:02:00,86.0,60.9,29.62,WNW,292,5.6,5.6,43,0.00,,---,0.00,VWS V14.01,2013-12-20 10:02:00,
2013-12-20 21:07:00,85.8,60.8,29.62,North,0,1.3,1.3,43,0.00,,---,0.00,VWS V14.01,2013-12-20 10:07:00,
2013-12-20 21:12:00,85.5,60.4,29.62,West,270,3.6,3.6,43,0.00,,---,0.00,VWS V14.01,2013-12-20 10:12:00,
2013-12-20 21:17:00,85.1,60.8,29.59,West,270,3.6,3.6,44,0.00,,---,0.00,VWS V14.01,2013-12-20 10:17:00,
2013-12-20 21:22:00,84.7,60.4,29.59,West,270,3.6,3.6,44,0.00,,---,0.00,VWS V14.01,2013-12-20 10:22:00,
2013-12-20 21:27:00,84.6,60.3,29.59,West,270,3.6,3.6,44,0.00,,---,0.00,VWS V14.01,2013-12-20 10:27:00,
2013-12-20 21:32:00,84.4,60.1,29.59,West,270,3.6,3.6,44,0.00,,---,0.00,VWS V14.01,2013-12-20 10:32:00,
2013-12-20 21:37:00,84.2,60.0,29.59,West,270,3.6,3.6,44,0.00,,---,0.00,VWS V14.01,2013-12-20 10:37:00,
2013-12-20 21:42:00,84.0,59.8,29.59,West,270,3.6,3.6,44,0.00,,---,0.00,VWS V14.01,2013-12-20 10:42:00,
2013-12-20 21:46:00,83.8,59.6,29.59,West,270,3.6,3.6,44,0.00,,---,0.00,VWS V14.01,2013-12-20 10:46:00,
2013-12-20 21:51:00,83.7,59.5,29.59,West,270,3.6,3.6,44,0.00,,---,0.00,VWS V14.01,2013-12-20 10:51:00,
2013-12-20 21:56:00,83.5,59.3,29.62,West,270,3.6,3.6,44,0.00,,---,0.00,VWS V14.01,2013-12-20 10:56:00,
2013-12-20 22:02:00,83.3,59.1,29.62,West,270,3.6,3.6,44,0.00,,---,0.00,VWS V14.01,2013-12-20 11:02:00,
2013-12-20 22:07:00,82.9,58.8,29.62,West,270,3.6,3.6,44,0.00,,---,0.00,VWS V14.01,2013-12-20 11:07:00,
2013-12-20 22:12:00,82.8,58.7,29.62,West,270,3.6,3.6,44,0.00,,---,0.00,VWS V14.01,2013-12-20 11:12:00,
2013-12-20 22:16:00,82.8,58.7,29.62,West,270,3.6,3.6,44,0.00,,---,0.00,VWS V14.01,2013-12-20 11:16:00,
2013-12-20 22:21:00,82.8,58.0,29.62,West,270,3.6,3.6,43,0.00,,---,0.00,VWS V14.01,2013-12-20 11:21:00,
2013-12-20 22:26:00,82.6,58.5,29.62,West,270,3.6,3.6,44,0.00,,---,0.00,VWS V14.01,2013-12-20 11:26:00,
2013-12-20 22:31:00,82.4,59.0,29.62,West,270,3.6,3.6,45,0.00,,---,0.00,VWS V14.01,2013-12-20 11:31:00,
2013-12-20 22:36:00,82.4,59.0,29.62,West,270,3.6,3.6,45,0.00,,---,0.00,VWS V14.01,2013-12-20 11:36:00,
2013-12-20 22:41:00,82.0,58.6,29.62,West,270,3.6,3.6,45,0.00,,---,0.00,VWS V14.01,2013-12-20 11:41:00,
2013-12-20 22:46:00,82.0,58.6,29.62,West,270,3.6,3.6,45,0.00,,---,0.00,VWS V14.01,2013-12-20 11:46:00,
2013-12-20 22:51:00,81.5,58.8,29.62,West,270,3.6,3.6,46,0.00,,---,0.00,VWS V14.01,2013-12-20 11:51:00,
2013-12-20 22:56:00,81.5,58.8,29.62,West,270,3.6,3.6,46,0.00,,---,0.00,VWS V14.01,2013-12-20 11:56:00,
2013-12-20 23:01:00,81.5,58.1,29.62,West,270,3.6,3.6,45,0.00,,---,0.00,VWS V14.01,2013-12-20 12:01:00,
2013-12-20 23:06:00,81.5,58.1,29.62,West,270,3.6,3.6,45,0.00,,---,0.00,VWS V14.01,2013-12-20 12:06:00,
2013-12-20 23:11:00,81.5,58.1,29.62,West,270,3.6,3.6,45,0.00,,---,0.00,VWS V14.01,2013-12-20 12:11:00,
2013-12-20 23:16:00,81.3,58.0,29.62,West,270,3.6,3.6,45,0.00,,---,0.00,VWS V14.01,2013-12-20 12:16:00,
2013-12-20 23:21:00,81.0,58.3,29.62,West,270,3.6,3.6,46,0.00,,---,0.00,VWS V14.01,2013-12-20 12:21:00,
2013-12-20 23:26:00,80.8,57.5,29.62,West,270,3.6,3.6,45,0.00,,---,0.00,VWS V14.01,2013-12-20 12:26:00,
2013-12-20 23:31:00,80.2,58.2,29.62,West,270,3.6,3.6,47,0.00,,---,0.00,VWS V14.01,2013-12-20 12:31:00,
2013-12-20 23:36:00,79.9,57.9,29.62,West,270,3.6,3.6,47,0.00,,---,0.00,VWS V14.01,2013-12-20 12:36:00,
2013-12-20 23:41:00,79.9,59.6,29.65,West,270,3.6,3.6,50,0.00,,---,0.00,VWS V14.01,2013-12-20 12:41:00,
2013-12-20 23:46:00,79.5,58.7,29.65,West,270,3.6,3.6,49,0.00,,---,0.00,VWS V14.01,2013-12-20 12:46:00,
2013-12-20 23:51:00,79.3,60.2,29.65,SSE,158,0.0,0.0,52,0.00,,---,0.00,VWS V14.01,2013-12-20 12:51:00,
2013-12-20 23:56:00,78.1,61.1,29.65,SSE,158,0.0,0.0,56,0.00,,---,0.00,VWS V14.01,2013-12-20 12:56:00,